Date String (YYYY-MM-DD hh:mm:ss) UTC,Instrument flags,Ambient pressure (hPa),Sample flow (lpm),Bypass flow (lpm),Sample temperature (°C),Ambient temperature (°C),ASC tube jacket temperature (°C),LED temperature (°C),Box temperature (°C),Sample RH (%),Span deviation,Mass concentration (μg/m³),Mass concentration (μg/m³),Mass concentration (μg/m³)
DateTimeUTC,F1_M11,P_M11,Q1_M11,Q2_M11,T1_M11,T2_M11,T3_M11,T4_M11,T5_M11,U1_M11,ZSPAN_M11,X2_M11,X0_M11,X1_M11
2022-11-26 03:00:00,,0827.1,5.00,0.00,26.2,24.6,00.0,35.3,27.8,11.0,0000.0,0001.00,0001.52,0000.78
2022-11-26 03:01:00,,0827.3,5.00,0.00,26.2,24.5,00.0,35.3,27.8,10.9,0000.0,0001.02,0001.54,0000.79
2022-11-26 03:02:00,,0827.5,4.99,0.00,26.2,24.5,00.0,35.3,27.7,10.9,0000.0,0001.00,0001.53,0000.79
2022-11-26 03:03:00,,0827.3,5.00,0.00,26.2,24.5,00.0,35.2,27.7,10.9,0000.0,0001.00,0001.53,0000.79
2022-11-26 03:04:00,,0827.0,5.00,0.00,26.2,24.5,00.0,35.2,27.8,11.0,0000.0,0001.01,0001.55,0000.79
2022-11-26 03:05:00,,0827.0,5.00,0.00,26.1,24.5,00.0,35.2,27.8,10.9,0000.0,0000.95,0001.39,0000.79
2022-11-26 03:06:00,,0827.1,5.02,0.00,26.1,24.4,00.0,35.2,27.7,11.0,0000.0,0000.95,0001.37,0000.79
2022-11-26 03:07:00,,0827.1,5.00,0.00,26.1,24.4,00.0,35.2,27.7,11.0,0000.0,0000.94,0001.26,0000.80
2022-11-26 03:08:00,,0827.1,4.99,0.00,26.1,24.4,00.0,35.2,27.7,11.1,0000.0,0000.98,0001.39,0000.80
2022-11-26 03:09:00,,0827.3,5.00,0.00,26.1,24.4,00.0,35.2,27.7,11.1,0000.0,0000.99,0001.43,0000.81
2022-11-26 03:10:00,,0826.9,5.01,0.00,26.1,24.4,00.0,35.1,27.7,11.1,0000.0,0000.98,0001.40,0000.81
2022-11-26 03:11:00,,0827.1,5.00,0.00,26.1,24.4,00.0,35.1,27.7,11.2,0000.0,0000.95,0001.55,0000.81
2022-11-26 03:12:00,,0826.9,5.00,0.00,26.0,24.4,00.0,35.1,27.6,11.1,0000.0,0000.98,0002.01,0000.81
2022-11-26 03:13:00,,0826.9,5.00,0.00,26.0,24.3,00.0,35.1,27.6,11.1,0000.0,0000.97,0002.24,0000.80
2022-11-26 03:14:00,,0826.9,4.99,0.00,26.0,24.3,00.0,35.1,27.6,11.1,0000.0,0000.98,0003.46,0000.80
2022-11-26 03:15:00,,0826.9,4.99,0.00,26.0,24.3,00.0,35.1,27.6,11.1,0000.0,0000.98,0003.47,0000.79
2022-11-26 03:16:00,,0827.0,5.02,0.00,26.0,24.3,00.0,35.1,27.6,11.2,0000.0,0001.00,0003.56,0000.80
2022-11-26 03:17:00,,0827.0,5.00,0.00,26.0,24.3,00.0,35.0,27.5,11.1,0000.0,0001.01,0003.64,0000.79
2022-11-26 03:18:00,,0826.9,5.00,0.00,25.9,24.3,00.0,35.0,27.5,11.1,0000.0,0001.04,0003.71,0000.79
2022-11-26 03:19:00,,0827.2,4.99,0.00,25.9,24.3,00.0,35.0,27.4,11.1,0000.0,0001.08,0003.75,0000.79
2022-11-26 03:20:00,,0827.0,5.00,0.00,25.9,24.3,00.0,35.0,27.4,11.1,0000.0,0001.08,0003.74,0000.79
2022-11-26 03:21:00,,0827.0,5.00,0.00,25.9,24.2,00.0,35.0,27.5,11.2,0000.0,0001.08,0003.73,0000.80
2022-11-26 03:22:00,,0826.9,5.00,0.00,25.9,24.2,00.0,35.0,27.4,11.1,0000.0,0001.09,0003.58,0000.80
2022-11-26 03:23:00,,0827.0,5.01,0.00,25.8,24.2,00.0,34.9,27.4,11.1,0000.0,0001.09,0003.18,0000.81
2022-11-26 03:24:00,,0826.8,5.00,0.00,25.8,24.2,00.0,34.9,27.4,11.1,0000.0,0001.09,0002.97,0000.81
2022-11-26 03:25:00,,0826.8,4.98,0.00,25.8,24.2,00.0,34.9,27.4,11.2,0000.0,0001.06,0001.74,0000.80
2022-11-26 03:26:00,,0826.9,5.01,0.00,25.8,24.2,00.0,34.9,27.4,11.2,0000.0,0001.05,0001.66,0000.80
2022-11-26 03:27:00,,0826.9,5.01,0.00,25.8,24.2,00.0,34.9,27.4,11.2,0000.0,0001.04,0001.60,0000.79
2022-11-26 03:28:00,,0826.8,5.00,0.00,25.8,24.2,00.0,34.9,27.5,11.2,0000.0,0001.04,0001.60,0000.79
2022-11-26 03:29:00,,0826.8,5.00,0.00,25.8,24.2,00.0,34.9,27.4,11.2,0000.0,0001.02,0001.59,0000.79
2022-11-26 03:30:00,,0826.8,4.98,0.00,25.8,24.2,00.0,34.9,27.4,11.1,0000.0,0000.97,0001.57,0000.78
2022-11-26 03:31:00,,0826.8,5.00,0.00,25.8,24.2,00.0,34.9,27.4,11.1,0000.0,0000.96,0001.58,0000.76
2022-11-26 03:32:00,,0826.8,5.00,0.00,25.8,24.1,00.0,34.8,27.4,11.1,0000.0,0001.00,0001.67,0000.76
2022-11-26 03:33:00,,0826.8,5.00,0.00,25.7,24.1,00.0,34.8,27.4,11.1,0000.0,0000.99,0001.64,0000.76
2022-11-26 03:34:00,,0826.8,5.00,0.00,25.7,24.1,00.0,34.8,27.3,11.1,0000.0,0000.97,0001.60,0000.75
2022-11-26 03:35:00,,0826.8,5.01,0.00,25.7,24.1,00.0,34.8,27.3,11.1,0000.0,0000.98,0001.62,0000.74
2022-11-26 03:36:00,,0826.8,5.00,0.00,25.7,24.1,00.0,34.8,27.3,11.1,0000.0,0001.01,0001.66,0000.75
2022-11-26 03:37:00,,0826.8,5.00,0.00,25.7,24.1,00.0,34.8,27.3,11.1,0000.0,0001.02,0001.70,0000.74
2022-11-26 03:38:00,,0826.8,5.00,0.00,25.7,24.0,00.0,34.7,27.2,11.1,0000.0,0001.01,0001.70,0000.73
2022-11-26 03:39:00,,0826.8,5.00,0.00,25.7,24.0,00.0,34.7,27.3,11.1,0000.0,0001.02,0001.77,0000.73
2022-11-26 03:40:00,,0826.8,5.00,0.00,25.7,24.0,00.0,34.7,27.3,11.1,0000.0,0001.02,0001.75,0000.73
2022-11-26 03:41:00,,0826.8,5.00,0.00,25.6,24.0,00.0,34.7,27.3,11.1,0000.0,0001.00,0001.66,0000.73
2022-11-26 03:42:00,,0826.7,5.01,0.00,25.6,24.0,00.0,34.7,27.3,11.2,0000.0,0000.99,0001.60,0000.73
2022-11-26 03:43:00,,0826.7,4.99,0.00,25.6,24.0,00.0,34.7,27.3,11.2,0000.0,0000.95,0001.52,0000.72
2022-11-26 03:44:00,,0826.7,4.99,0.00,25.6,24.0,00.0,34.7,27.2,11.2,0000.0,0000.95,0001.53,0000.71
2022-11-26 03:45:00,,0826.7,5.02,0.00,25.6,23.9,00.0,34.7,27.2,11.2,0000.0,0000.95,0001.51,0000.72
2022-11-26 03:46:00,,0826.7,5.00,0.00,25.6,24.0,00.0,34.7,27.3,11.2,0000.0,0000.92,0001.46,0000.72
2022-11-26 03:47:00,,0826.7,4.99,0.00,25.6,24.0,00.0,34.6,27.2,11.2,0000.0,0000.88,0001.37,0000.72
2022-11-26 03:48:00,,0826.7,5.00,0.00,25.5,24.0,00.0,34.6,27.2,11.2,0000.0,0000.89,0001.40,0000.71
2022-11-26 03:49:00,,0826.7,5.00,0.00,25.5,23.9,00.0,34.6,27.2,11.2,0000.0,0000.89,0001.47,0000.72
2022-11-26 03:50:00,,0826.7,5.00,0.00,25.5,23.9,00.0,34.6,27.2,11.2,0000.0,0000.86,0001.37,0000.72
2022-11-26 03:51:00,,0826.7,5.02,0.00,25.5,23.9,00.0,34.6,27.1,11.2,0000.0,0000.84,0001.29,0000.71
2022-11-26 03:52:00,,0826.7,4.98,0.00,25.5,23.9,00.0,34.6,27.1,11.2,0000.0,0000.83,0001.26,0000.71
2022-11-26 03:53:00,,0826.7,5.00,0.00,25.5,23.9,00.0,34.6,27.2,11.2,0000.0,0000.83,0001.25,0000.71
2022-11-26 03:54:00,,0826.6,5.02,0.00,25.5,23.9,00.0,34.6,27.2,11.2,0000.0,0000.82,0001.27,0000.70
2022-11-26 03:55:00,,0826.6,5.00,0.00,25.5,23.9,00.0,34.6,27.2,11.2,0000.0,0000.83,0002.06,0000.70
2022-11-26 03:56:00,,0826.6,5.00,0.00,25.5,23.9,00.0,34.6,27.2,11.2,0000.0,0000.83,0002.25,0000.70
2022-11-26 03:57:00,,0826.7,5.00,0.00,25.5,23.9,00.0,34.5,27.2,11.2,0000.0,0000.83,0002.31,0000.69
2022-11-26 03:58:00,,0826.7,4.98,0.00,25.5,23.9,00.0,34.5,27.2,11.2,0000.0,0000.84,0002.35,0000.70
2022-11-26 03:59:00,,0826.6,5.00,0.00,25.5,23.9,00.0,34.5,27.3,11.2,0000.0,0000.82,0002.32,0000.70
